Point Hope, AK

4:45 AM AKDT on September 22, 2017 (GMT -0800)
Point Hope

Weather History for PAPO - September, 2013

Change the Weather History Date:

Saturday, September 14, 2013

  Actual Average Record
Temperature  
Mean Temperature 37 °F -  
Max Temperature 39 °F 41 °F 53 °F (1997)
Min Temperature 35 °F 36 °F 28 °F (1996)
Degree Days  
Heating Degree Days 28    
Moisture  
Dew Point 32 °F    
Average Humidity 81    
Maximum Humidity 93    
Minimum Humidity 70    
Precipitation  
Precipitation 0.00 in - - ()
Sea Level Pressure  
Sea Level Pressure 30.10 in    
Wind  
Wind Speed 10 mph (WNW)    
Max Wind Speed 15 mph    
Max Gust Speed 20 mph    
Visibility 9 miles    
Events      
Averages and records for this station are not official NWS values.
T = Trace of Precipitation, MM = Missing Value Source: NWS Daily Summary

Daily Weather History Graph

Daily Weather History Graph

Search for Another Location

Airport or City:

Trip Planner

Search our weather history database for the weather conditions in past years. The results will help you decide how hot, cold, wet, or windy it might be!

Date:

Astronomy

Sep. 14, 2013 Rise Set
Actual Time 8:21 AM AKDT 9:41 PM AKDT
Civil Twilight 7:22 AM AKDT 10:40 PM AKDT
Nautical Twilight 6:03 AM AKDT 11:57 PM AKDT
Astronomical Twilight 3:46 AM AKDT 2:02 AM AKDT
Moon 8:25 PM AKDT (9/14) 12:46 AM AKDT (9/14)
Length of Visible Light 15h 17m
Length of Day
13h 20m
Waxing Gibbous, 74% of the Moon is Illuminated
Sep 14
Waxing Gibbous
Sep 19
Full
Sep 26
Last Quarter
Oct 4
New
Oct 11
First Quarter

Hourly Weather History & Observations

Time (AKDT) Temp. Windchill Dew Point Humidity Pressure Visibility Wind Dir Wind Speed Gust Speed Precip Events Conditions
12:16 AM 37.4 °F 29.3 °F 32.0 °F 81% 29.99 in 10.0 mi WNW 12.7 mph - N/A   Overcast
12:36 AM 37.4 °F 28.9 °F 33.8 °F 87% 29.99 in 10.0 mi West 13.8 mph 18.4 mph N/A   Overcast
1:16 AM 37.4 °F 29.3 °F 32.0 °F 81% 30.01 in 10.0 mi West 12.7 mph - N/A   Overcast
1:36 AM 37.4 °F 29.3 °F 32.0 °F 81% 30.01 in 10.0 mi West 12.7 mph - N/A   Overcast
1:56 AM 37.4 °F 29.8 °F 32.0 °F 81% 30.01 in 10.0 mi West 11.5 mph - N/A   Overcast
2:16 AM 37.4 °F 29.8 °F 32.0 °F 81% 30.02 in 10.0 mi WNW 11.5 mph - N/A   Overcast
2:36 AM 37.4 °F 30.3 °F 32.0 °F 81% 30.02 in 10.0 mi WNW 10.4 mph - N/A   Overcast
2:56 AM 37.4 °F 28.9 °F 32.0 °F 81% 30.02 in 10.0 mi WNW 13.8 mph 18.4 mph N/A   Overcast
3:16 AM 37.4 °F 28.9 °F 33.8 °F 87% 30.03 in 8.0 mi WNW 13.8 mph - N/A   Overcast
3:36 AM 37.4 °F 28.9 °F 33.8 °F 87% 30.03 in 10.0 mi West 13.8 mph - N/A   Overcast
3:56 AM 37.4 °F 28.5 °F 33.8 °F 87% 30.03 in 8.0 mi West 15.0 mph - N/A   Overcast
4:16 AM 37.4 °F 28.5 °F 32.0 °F 81% 30.04 in 10.0 mi West 15.0 mph 19.6 mph N/A   Overcast
4:36 AM 37.4 °F 28.5 °F 30.2 °F 75% 30.04 in 10.0 mi WNW 15.0 mph - N/A   Overcast
4:56 AM 37.4 °F 28.9 °F 32.0 °F 81% 30.04 in 10.0 mi WNW 13.8 mph - N/A   Overcast
5:16 AM 37.4 °F 29.8 °F 32.0 °F 81% 30.05 in 9.0 mi West 11.5 mph - N/A   Overcast
5:36 AM 37.4 °F 29.3 °F 32.0 °F 81% 30.05 in 10.0 mi West 12.7 mph - N/A   Overcast
5:56 AM 37.4 °F 29.3 °F 30.2 °F 75% 30.05 in 10.0 mi WNW 12.7 mph - N/A   Overcast
6:16 AM 37.4 °F 30.3 °F 30.2 °F 75% 30.05 in 10.0 mi WNW 10.4 mph - N/A   Overcast
6:36 AM 35.6 °F 27.5 °F 30.2 °F 81% 30.05 in 10.0 mi NW 11.5 mph - N/A   Overcast
6:56 AM 37.4 °F 29.8 °F 30.2 °F 75% 30.06 in 10.0 mi NW 11.5 mph - N/A   Overcast
7:16 AM 35.6 °F 27.1 °F 30.2 °F 81% 30.05 in 10.0 mi WNW 12.7 mph - N/A   Overcast
7:36 AM 37.4 °F 29.3 °F 30.2 °F 75% 30.05 in 10.0 mi NW 12.7 mph - N/A   Overcast
7:56 AM 37.4 °F 29.8 °F 30.2 °F 75% 30.06 in 10.0 mi WNW 11.5 mph - N/A   Overcast
8:16 AM 35.6 °F 28.0 °F 32.0 °F 87% 30.06 in 9.0 mi West 10.4 mph - N/A   Overcast
8:36 AM 35.6 °F 27.5 °F 30.2 °F 81% 30.06 in 10.0 mi WNW 11.5 mph - N/A   Mostly Cloudy
8:56 AM 35.6 °F 27.5 °F 33.8 °F 93% 30.07 in 10.0 mi West 11.5 mph - N/A   Overcast
9:16 AM 35.6 °F 28.6 °F 32.0 °F 87% 30.07 in 7.0 mi WNW 9.2 mph - N/A   Overcast
9:36 AM 35.6 °F 29.2 °F 32.0 °F 87% 30.07 in 9.0 mi NNW 8.1 mph - N/A   Overcast
9:56 AM 37.4 °F 30.8 °F 33.8 °F 87% 30.08 in 10.0 mi WNW 9.2 mph - N/A   Overcast
10:16 AM 35.6 °F 28.0 °F 32.0 °F 87% 30.08 in 10.0 mi West 10.4 mph - N/A   Overcast
10:36 AM 37.4 °F 32.1 °F 33.8 °F 87% 30.09 in 6.0 mi West 6.9 mph - N/A   Overcast
10:56 AM 37.4 °F 30.8 °F 33.8 °F 87% 30.09 in 9.0 mi WNW 9.2 mph - N/A   Mostly Cloudy
11:16 AM 37.4 °F 31.4 °F 33.8 °F 87% 30.09 in 7.0 mi West 8.1 mph - N/A   Overcast
11:36 AM 37.4 °F 30.8 °F 33.8 °F 87% 30.10 in 6.0 mi West 9.2 mph - N/A   Overcast
11:56 AM 37.4 °F 30.8 °F 33.8 °F 87% 30.10 in 10.0 mi West 9.2 mph - N/A   Overcast
12:16 PM 37.4 °F 31.4 °F 33.8 °F 87% 30.10 in 9.0 mi West 8.1 mph - N/A   Overcast
12:36 PM 37.4 °F 31.4 °F 33.8 °F 87% 30.11 in 10.0 mi West 8.1 mph - N/A   Overcast
1:16 PM 37.4 °F - 32.0 °F 81% 30.12 in 10.0 mi Calm Calm - N/A   Overcast
1:36 PM 37.4 °F 32.8 °F 32.0 °F 81% 30.12 in 10.0 mi West 5.8 mph - N/A   Mostly Cloudy
1:56 PM 39.2 °F 33.6 °F 32.0 °F 75% 30.12 in 10.0 mi West 8.1 mph - N/A   Mostly Cloudy
2:16 PM 39.2 °F 35.0 °F 32.0 °F 75% 30.12 in 10.0 mi WNW 5.8 mph - N/A   Overcast
2:36 PM 39.2 °F 33.6 °F 32.0 °F 75% 30.13 in 10.0 mi WNW 8.1 mph - N/A   Overcast
2:56 PM 37.4 °F 31.4 °F 32.0 °F 81% 30.13 in 10.0 mi West 8.1 mph - N/A   Overcast
3:16 PM 37.4 °F 34.9 °F 30.2 °F 75% 30.13 in 10.0 mi West 3.5 mph - N/A   Overcast
3:36 PM 39.2 °F 35.9 °F 30.2 °F 70% 30.13 in 10.0 mi NW 4.6 mph - N/A   Overcast
3:56 PM 39.2 °F 34.2 °F 32.0 °F 75% 30.13 in 10.0 mi NW 6.9 mph - N/A   Overcast
4:16 PM 39.2 °F 37.0 °F 32.0 °F 75% 30.14 in 10.0 mi West 3.5 mph - N/A   Overcast
4:36 PM 37.4 °F 32.8 °F 33.8 °F 87% 30.14 in 8.0 mi NNW 5.8 mph - N/A   Overcast
4:56 PM 37.4 °F - 33.8 °F 87% 30.14 in 10.0 mi Calm Calm - N/A   Overcast
5:16 PM 37.4 °F 32.1 °F 33.8 °F 87% 30.14 in 10.0 mi NNW 6.9 mph - N/A   Overcast
5:36 PM 37.4 °F 32.8 °F 33.8 °F 87% 30.14 in 5.0 mi NNW 5.8 mph - N/A   Overcast
5:56 PM 37.4 °F - 33.8 °F 87% 30.15 in 4.0 mi Calm Calm - N/A   Overcast
6:16 PM 37.4 °F - 33.8 °F 87% 30.15 in 10.0 mi Calm Calm - N/A   Mostly Cloudy
6:36 PM 37.4 °F 32.8 °F 32.0 °F 81% 30.15 in 10.0 mi NNW 5.8 mph - N/A   Overcast
6:56 PM 37.4 °F - 33.8 °F 87% 30.15 in 6.0 mi Calm Calm - N/A   Overcast
7:16 PM 37.4 °F - 33.8 °F 87% 30.15 in 10.0 mi Calm Calm - N/A   Overcast
7:36 PM 39.2 °F 37.0 °F 32.0 °F 75% 30.16 in 10.0 mi NE 3.5 mph - N/A   Overcast
7:56 PM 39.2 °F 34.2 °F 30.2 °F 70% 30.16 in 10.0 mi North 6.9 mph - N/A   Overcast
8:16 PM 37.4 °F 32.8 °F 30.2 °F 75% 30.16 in 10.0 mi NNW 5.8 mph - N/A   Overcast
8:36 PM 37.4 °F 33.8 °F 30.2 °F 75% 30.16 in 10.0 mi NNE 4.6 mph - N/A   Overcast
8:56 PM 37.4 °F 32.1 °F 30.2 °F 75% 30.17 in 10.0 mi NE 6.9 mph - N/A   Overcast
9:16 PM 37.4 °F 33.8 °F 30.2 °F 75% 30.17 in 10.0 mi NE 4.6 mph - N/A   Overcast
9:36 PM 37.4 °F - 30.2 °F 75% 30.17 in 10.0 mi Calm Calm - N/A   Overcast
9:56 PM 37.4 °F 32.8 °F 30.2 °F 75% 30.18 in 10.0 mi ENE 5.8 mph - N/A   Overcast
10:16 PM 37.4 °F 32.8 °F 30.2 °F 75% 30.18 in 10.0 mi North 5.8 mph - N/A   Overcast
10:36 PM 37.4 °F - 30.2 °F 75% 30.18 in 10.0 mi Calm Calm - N/A   Overcast
10:56 PM 37.4 °F 33.8 °F 30.2 °F 75% 30.18 in 10.0 mi ENE 4.6 mph - N/A   Overcast
11:16 PM 37.4 °F 32.8 °F 30.2 °F 75% 30.19 in 10.0 mi ENE 5.8 mph - N/A   Overcast
11:36 PM 37.4 °F 34.9 °F 30.2 °F 75% 30.19 in 10.0 mi ESE 3.5 mph - N/A   Overcast
11:56 PM 37.4 °F 31.4 °F 30.2 °F 75% 30.19 in 10.0 mi East 8.1 mph - N/A   Overcast